751  
ASUS45 KREV 270310  
RWRNV  
NEVADA REGIONAL WEATHER ROUNDUP  
NATIONAL WEATHER SERVICE RENO NV  
700 PM PST WED FEB 26 2020  
 
NOTE: "FAIR" INDICATES FEW OR NO CLOUDS BELOW 12,000 FEET WITH NO  
SIGNIFICANT WEATHER AND/OR S TO VISIBILITY
.  
 
NVZ001-003-004-270400-  
WESTERN NEVADA  
 
CITY SKY/WX TMP DP RH WIND PRES REMARKS
 
RENO CLEAR 56 13 18 N8 30.35R  
CARSON CITY FAIR 55 12 18 NE10 30.35R  
MINDEN FAIR 46 19 34 E9 30.36R  
SLIDE MTN N/A 34 25 69 NW6 N/A  
PYRAMID LAKE N/A 54 N/A N/A SW3 N/A  
FALLON PTCLDY 47 11 23 NE7 30.34R  
LOVELOCK CLEAR 46 11 24 NW5 30.35R  

 
 
NVZ002-CAZ072-073-270400-  
NORTHERN AND CENTRAL SIERRA  
 
CITY SKY/WX TMP DP RH WIND PRES REMARKS
 
S. LAKE TAHOE CLEAR 39 26 59 CALM 30.41R  
TRUCKEE CLEAR 37 25 60 SE3 30.42R  
SQUAW VLY 8000 N/A 39 19 45 W2 N/A  
BLUE CANYON CLEAR 50 35 56 N3 30.40S  
MAMMOTH LAKES FAIR 37 9 30 NE3 30.43R  
BRIDGEPORT N/A 39 14 35 W6 N/A  

 
 
NVZ030-031-036-270400-  
NORTHERN NEVADA  
 
CITY SKY/WX TMP DP RH WIND PRES REMARKS
 
ELKO CLEAR 35 17 47 CALM 30.36R  
WINNEMUCCA CLEAR 36 9 32 CALM 30.35R  
BATTLE MOUNTAI CLEAR 46 12 25 CALM 30.37R  
WENDOVER CLEAR 32 15 49 NW5 30.38S  

 
 
NVZ035-037-270400-  
CENTRAL NEVADA  
 
CITY SKY/WX TMP DP RH WIND PRES REMARKS
 
ELY CLEAR 34 8 33 W8 30.37R  
EUREKA N/A 36 10 34 N8 30.38R  

 
 
NVZ013-014-270400-  
SOUTH CENTRAL NEVADA  
 
CITY SKY/WX TMP DP RH WIND PRES REMARKS
 
TONOPAH CLEAR 49 10 20 NW8 30.36R  

 
 
NVZ017-020-022-270400-  
SOUTHERN NEVADA  
 
CITY SKY/WX TMP DP RH WIND PRES REMARKS
 
LAS VEGAS CLEAR 58 14 17 SE3 30.33R  
N. LAS VEGAS CLEAR 58 16 19 CALM 30.32S  
NELLIS AFB CLEAR 53 27 36 NE3 30.33S  
HENDERSON CLEAR 53 17 24 E3 30.35R  
MERCURY CLEAR 48 27 44 E5 30.33R  

 
 
 
CLICK HERE TO GO TO PREVIOUS BULLETINS.

The Nexlab NV Page Main Text Page